When you browse on this site, cookies collect data to enhance your experience and personalize the content and advertising you see.
Visit our Privacy Policy to learn more. By continuing to use the site, you agree to this use of cookies and data.
  • In Sweden
  • List of Countries
  • For 7 days
  • Water Temperature
  • Weather Map
  • Weather Widgets
  • user-avatar
    Login

    Hourly Weather Swiniary

    Today, 18 October, Friday

    Time Temperature Precipitation Wind Pressure Humidity
    00:00 +11°C° 0 mm 3 mps 746 mmHg 70%
    01:00 +12°C° 0 mm 2 mps 746 mmHg 71%
    02:00 +10°C° 0 mm 2 mps 745 mmHg 73%
    03:00 +10°C° 0 mm 2 mps 745 mmHg 75%
    04:00 +10°C° 0 mm 2 mps 745 mmHg 76%
    05:00 +10°C° 0 mm 3 mps 745 mmHg 76%
    06:00 +10°C° 0 mm 3 mps 745 mmHg 77%
    07:00 +10°C° 0 mm 3 mps 745 mmHg 77%
    08:00 +12°C° 0 mm 3 mps 745 mmHg 72%
    09:00 +13°C° 0 mm 3 mps 745 mmHg 67%
    10:00 +16°C° 0 mm 3 mps 745 mmHg 62%
    11:00 +17°C° 0 mm 3 mps 745 mmHg 59%
    12:00 +18°C° 0 mm 3 mps 745 mmHg 56%
    13:00 +19°C° 0 mm 3 mps 744 mmHg 54%
    14:00 +18°C° 0 mm 2 mps 744 mmHg 57%
    15:00 +17°C° 0 mm 2 mps 744 mmHg 61%
    16:00 +16°C° 0 mm 2 mps 743 mmHg 65%
    17:00 +16°C° 0 mm 2 mps 743 mmHg 66%
    18:00 +15°C° 0 mm 2 mps 743 mmHg 67%
    19:00 +14°C° 0 mm 2 mps 743 mmHg 68%
    20:00 +14°C° 0 mm 2 mps 743 mmHg 69%
    21:00 +14°C° 0 mm 2 mps 743 mmHg 69%
    22:00 +13°C° 0 mm 2 mps 743 mmHg 69%
    23:00 +13°C° 0 mm 2 mps 743 mmHg 69%

    Tomorrow, 19 October, Saturday

    Time Temperature Precipitation Wind Pressure Humidity
    00:00 +13°C° 0 mm 2 mps 743 mmHg 70%
    01:00 +13°C° 0 mm 2 mps 744 mmHg 70%
    02:00 +12°C° 0 mm 2 mps 743 mmHg 70%
    03:00 +12°C° 0 mm 2 mps 743 mmHg 71%
    04:00 +12°C° 0 mm 2 mps 743 mmHg 72%
    05:00 +12°C° 0 mm 2 mps 743 mmHg 73%
    06:00 +12°C° 0 mm 2 mps 744 mmHg 75%
    07:00 +12°C° 0 mm 2 mps 744 mmHg 77%
    08:00 +13°C° 0 mm 2 mps 744 mmHg 72%
    09:00 +15°C° 0 mm 2 mps 744 mmHg 68%
    10:00 +17°C° 0 mm 2 mps 744 mmHg 64%
    11:00 +17°C° 0 mm 2 mps 744 mmHg 61%
    12:00 +18°C° 0 mm 2 mps 744 mmHg 59%
    13:00 +19°C° 0 mm 2 mps 744 mmHg 57%
    14:00 +18°C° 0 mm 2 mps 743 mmHg 60%
    15:00 +18°C° 0 mm 1 mps 743 mmHg 64%
    16:00 +16°C° 0 mm 1 mps 743 mmHg 68%
    17:00 +16°C° 0 mm 1 mps 743 mmHg 70%
    18:00 +15°C° 0 mm 1 mps 743 mmHg 73%
    19:00 +14°C° 0 mm 1 mps 744 mmHg 75%
    20:00 +14°C° 0 mm 1 mps 744 mmHg 77%
    21:00 +14°C° 0 mm 1 mps 744 mmHg 79%
    22:00 +13°C° 0 mm 2 mps 744 mmHg 80%
    23:00 +13°C° 0 mm 2 mps 744 mmHg 83%

    Day after tomorrow, 20 October, Sunday

    Time Temperature Precipitation Wind Pressure Humidity
    00:00 +13°C° 0 mm 2 mps 743 mmHg 85%
    01:00 +12°C° 0 mm 1 mps 743 mmHg 87%
    02:00 +12°C° 0 mm 1 mps 743 mmHg 87%
    03:00 +12°C° 0 mm 1 mps 744 mmHg 87%
    04:00 +12°C° 0 mm 1 mps 744 mmHg 86%
    05:00 +13°C° 0 mm 1 mps 744 mmHg 86%
    06:00 +13°C° 0 mm 2 mps 744 mmHg 85%
    07:00 +13°C° 0 mm 2 mps 744 mmHg 84%
    08:00 +15°C° 0 mm 2 mps 744 mmHg 76%
    09:00 +16°C° 0 mm 2 mps 744 mmHg 69%
    10:00 +18°C° 0 mm 2 mps 744 mmHg 61%
    11:00 +19°C° 0 mm 2 mps 744 mmHg 59%
    12:00 +20°C° 0 mm 2 mps 744 mmHg 56%
    13:00 +21°C° 0 mm 2 mps 744 mmHg 53%
    14:00 +20°C° 0 mm 2 mps 744 mmHg 57%
    15:00 +19°C° 0 mm 2 mps 744 mmHg 61%
    16:00 +18°C° 0 mm 2 mps 744 mmHg 66%
    17:00 +17°C° 0 mm 2 mps 744 mmHg 69%
    18:00 +16°C° 0 mm 2 mps 744 mmHg 72%
    19:00 +15°C° 0 mm 2 mps 744 mmHg 75%
    20:00 +15°C° 0 mm 2 mps 744 mmHg 77%
    21:00 +14°C° 0 mm 2 mps 744 mmHg 80%
    22:00 +13°C° 0 mm 3 mps 744 mmHg 82%
    23:00 +13°C° 0 mm 3 mps 743 mmHg 84%

    21 October, Monday

    Time Temperature Precipitation Wind Pressure Humidity
    00:00 +12°C° 0 mm 3 mps 743 mmHg 85%
    01:00 +12°C° 0 mm 3 mps 743 mmHg 86%
    02:00 +12°C° 0 mm 3 mps 743 mmHg 85%
    03:00 +12°C° 0 mm 3 mps 743 mmHg 85%
    04:00 +12°C° 0 mm 3 mps 743 mmHg 84%
    05:00 +13°C° 0 mm 2 mps 743 mmHg 83%
    06:00 +13°C° 0 mm 2 mps 743 mmHg 82%
    07:00 +13°C° 0 mm 2 mps 743 mmHg 81%
    08:00 +15°C° 0 mm 2 mps 743 mmHg 75%
    09:00 +17°C° 0 mm 2 mps 744 mmHg 69%
    10:00 +18°C° 0 mm 2 mps 744 mmHg 62%
    11:00 +19°C° 0 mm 2 mps 744 mmHg 61%
    12:00 +20°C° 0 mm 3 mps 744 mmHg 59%
    13:00 +21°C° 0 mm 4 mps 744 mmHg 58%
    14:00 +20°C° 0 mm 3 mps 745 mmHg 64%
    15:00 +18°C° 0 mm 3 mps 745 mmHg 69%
    16:00 +17°C° 0 mm 3 mps 745 mmHg 75%
    17:00 +17°C° 0 mm 3 mps 745 mmHg 77%
    18:00 +16°C° 0 mm 3 mps 746 mmHg 79%
    19:00 +14°C° 0 mm 4 mps 747 mmHg 81%
    20:00 +14°C° 0 mm 4 mps 747 mmHg 83%
    21:00 +13°C° 0 mm 4 mps 747 mmHg 86%
    22:00 +13°C° 0 mm 4 mps 748 mmHg 88%
    23:00 +12°C° 0 mm 4 mps 748 mmHg 90%

    22 October, Tuesday

    Time Temperature Precipitation Wind Pressure Humidity
    00:00 +11°C° 0 mm 3 mps 749 mmHg 92%
    01:00 +10°C° 0 mm 3 mps 749 mmHg 94%
    02:00 +9°C° 0 mm 2 mps 750 mmHg 95%
    03:00 +9°C° 0 mm 2 mps 750 mmHg 95%
    04:00 +9°C° 0 mm 2 mps 751 mmHg 95%
    05:00 +9°C° 0 mm 2 mps 751 mmHg 95%
    06:00 +9°C° 0 mm 2 mps 751 mmHg 95%
    07:00 +10°C° 0 mm 1 mps 752 mmHg 95%
    08:00 +10°C° 0 mm 2 mps 752 mmHg 88%
    09:00 +12°C° 0 mm 2 mps 752 mmHg 81%
    10:00 +14°C° 0 mm 2 mps 753 mmHg 74%
    11:00 +14°C° 0 mm 3 mps 753 mmHg 69%
    12:00 +14°C° 0 mm 3 mps 753 mmHg 64%
    13:00 +16°C° 0 mm 3 mps 753 mmHg 59%
    14:00 +14°C° 0 mm 3 mps 752 mmHg 61%
    15:00 +13°C° 0 mm 3 mps 752 mmHg 63%
    16:00 +13°C° 0 mm 2 mps 752 mmHg 65%
    17:00 +12°C° 0 mm 2 mps 753 mmHg 69%
    18:00 +11°C° 0 mm 1 mps 753 mmHg 72%
    19:00 +10°C° 0 mm 1 mps 753 mmHg 76%
    20:00 +10°C° 0 mm 1 mps 753 mmHg 78%
    21:00 +9°C° 0 mm 1 mps 753 mmHg 80%
    22:00 +8°C° 0 mm 0 mps 753 mmHg 82%
    23:00 +9°C° 0 mm 1 mps 753 mmHg 83%

    23 October, Wednesday

    Time Temperature Precipitation Wind Pressure Humidity
    00:00 +8°C° 0 mm 1 mps 753 mmHg 85%
    01:00 +8°C° 0 mm 1 mps 753 mmHg 86%
    02:00 +8°C° 0 mm 1 mps 753 mmHg 86%
    03:00 +8°C° 0 mm 1 mps 753 mmHg 87%
    04:00 +6°C° 0 mm 0 mps 753 mmHg 87%
    05:00 +7°C° 0 mm 1 mps 753 mmHg 86%
    06:00 +8°C° 0 mm 1 mps 753 mmHg 86%
    07:00 +8°C° 0 mm 1 mps 753 mmHg 85%
    08:00 +9°C° 0 mm 1 mps 752 mmHg 79%
    09:00 +10°C° 0 mm 2 mps 752 mmHg 72%
    10:00 +13°C° 0 mm 2 mps 752 mmHg 66%
    11:00 +14°C° 0 mm 2 mps 752 mmHg 63%
    12:00 +15°C° 0 mm 2 mps 752 mmHg 60%
    13:00 +16°C° 0 mm 3 mps 751 mmHg 58%
    14:00 +14°C° 0 mm 3 mps 751 mmHg 62%
    15:00 +14°C° 0 mm 2 mps 750 mmHg 67%
    16:00 +13°C° 0 mm 2 mps 750 mmHg 72%
    17:00 +11°C° 0 mm 3 mps 750 mmHg 73%
    18:00 +10°C° 0 mm 3 mps 750 mmHg 75%
    19:00 +9°C° 0 mm 3 mps 750 mmHg 77%
    20:00 +8°C° 0 mm 4 mps 750 mmHg 77%
    21:00 +8°C° 0 mm 4 mps 749 mmHg 76%
    22:00 +8°C° 0 mm 4 mps 749 mmHg 76%
    23:00 +7°C° 0 mm 4 mps 749 mmHg 75%
    Show more